Location: Il Ritiro
(43.4167°N, 13.1333°E)
Time: 15:55:58
(UTC+00:00)

H-2A ROCKET BODY - Pass Details

Date: 05 July 2020
Orbit: 241 x 15320 km, 28.6° (Epoch: 10 August)

Event Time Altitude Azimuth Distance (km) Brightness Sun altitude
Rises 19:14:31 0° 233° (SW) 2,523 4.9 -4.3°
Reaches altitude 10° 19:16:21 10° 213° (SSW) 2,075 4.2 -4.6°
Maximum altitude 19:20:01 22° 162° (SSE) 2,300 4.0 -5.1°
Drops below altitude 10° 19:28:52 10° 119° (ESE) 5,499 5.7 -6.4°
Enters shadow 19:35:03 - 112° (ESE) 7,772 6.5 -7.2°
